Eastover, SC

7:47 PM EDT on April 27, 2017 (GMT -0400)
McEntire Angs

Weather History for KMMT - April, 2013

Change the Weather History Date:

Monday, April 29, 2013

  Actual Average Record
Temperature  
Mean Temperature 68 °F -  
Max Temperature 75 °F 74 °F 88 °F (2016)
Min Temperature 60 °F 55 °F 42 °F (2008)
Cooling Degree Days 2    
Growing Degree Days 18 (Base 50)    
Moisture  
Dew Point 63 °F    
Average Humidity 92    
Maximum Humidity 100    
Minimum Humidity 58    
Precipitation  
Precipitation 0.90 in - - ()
Sea Level Pressure  
Sea Level Pressure 30.03 in    
Wind  
Wind Speed 3 mph (SW)    
Max Wind Speed 9 mph    
Max Gust Speed -    
Visibility 8 miles    
Events Rain    
Averages and records for this station are not official NWS values.
T = Trace of Precipitation, MM = Missing Value Source: NWS Daily Summary

Daily Weather History Graph

Daily Weather History Graph

Search for Another Location

Airport or City:

Trip Planner

Search our weather history database for the weather conditions in past years. The results will help you decide how hot, cold, wet, or windy it might be!

Date:

Astronomy

Apr. 29, 2013 Rise Set
Actual Time 6:36 AM EDT 8:05 PM EDT
Civil Twilight 6:09 AM EDT 8:32 PM EDT
Nautical Twilight 5:37 AM EDT 9:03 PM EDT
Astronomical Twilight 5:04 AM EDT 9:37 PM EDT
Moon No Moon Rise 9:59 AM EDT (4/29)
Length of Visible Light 14h 22m
Length of Day
13h 29m
Waning Gibbous, 80% of the Moon is Illuminated
Apr 29
Waning Gibbous
May 2
Last Quarter
May 9
New
May 18
First Quarter
May 25
Full

Hourly Weather History & Observations

Time (EDT) Temp. Dew Point Humidity Pressure Visibility Wind Dir Wind Speed Gust Speed Precip Events Conditions
12:18 AM 64.4 °F 64.4 °F 100% 30.06 in 5.0 mi SE 2.3 mph - N/A Rain Light Rain
12:28 AM 64.4 °F 64.4 °F 100% 30.06 in 5.0 mi SE 2.3 mph - N/A Rain Light Rain
12:38 AM 64.4 °F 64.4 °F 100% 30.06 in 2.0 mi SE 2.3 mph - N/A Rain Rain
12:48 AM 62.6 °F 62.6 °F 100% 30.06 in 3.0 mi Calm Calm - N/A Rain Rain
12:58 AM 64.4 °F 64.4 °F 100% 30.07 in 4.0 mi SW 2.3 mph - 0.21 in Rain Light Rain
1:28 AM 64.4 °F 64.4 °F 100% 30.06 in 4.0 mi West 4.6 mph - N/A Rain Rain
1:38 AM 62.6 °F 62.6 °F 100% 30.06 in 9.0 mi SW 4.6 mph - N/A Rain Light Rain
1:48 AM 62.6 °F 62.6 °F 100% 30.06 in 6.0 mi West 4.6 mph - N/A Rain Light Rain
1:58 AM 62.6 °F 62.6 °F 100% 30.07 in 2.5 mi NW 1.2 mph - 0.11 in Rain Heavy Rain
2:08 AM 62.6 °F 62.6 °F 100% 30.06 in 6.0 mi West 4.6 mph - N/A Rain Light Rain
2:18 AM 62.6 °F 62.6 °F 100% 30.05 in 2.5 mi WNW 3.5 mph - N/A Rain Heavy Rain
2:28 AM 62.6 °F 62.6 °F 100% 30.05 in 7.0 mi West 2.3 mph - N/A Rain Rain
2:48 AM 62.6 °F 62.6 °F 100% 30.04 in 9.0 mi West 2.3 mph - N/A Rain Light Rain
2:58 AM 62.2 °F 62.2 °F 100% 30.05 in 8.0 mi West 3.5 mph - 0.15 in Rain Light Rain
3:28 AM 62.6 °F 62.6 °F 100% 30.03 in 10.0 mi NW 3.5 mph - N/A   Mostly Cloudy
3:58 AM 62.2 °F 62.2 °F 100% 30.04 in 3.0 mi NW 5.8 mph - 0.09 in Rain Heavy Rain
4:08 AM 62.6 °F 62.6 °F 100% 30.03 in 9.0 mi NW 4.6 mph - N/A Rain Light Rain
4:18 AM 62.6 °F 62.6 °F 100% 30.03 in 4.0 mi WNW 4.6 mph - N/A Rain Heavy Rain
4:48 AM 62.6 °F 62.6 °F 100% 30.02 in 2.5 mi WSW 2.3 mph - N/A Rain Rain
4:58 AM 61.9 °F 61.9 °F 100% 30.04 in 6.0 mi South 2.3 mph - 0.20 in Rain Rain
5:58 AM 61.5 °F 61.5 °F 100% 30.02 in 9.0 mi SE 3.5 mph - 0.14 in Rain Light Rain
6:48 AM 60.8 °F 60.8 °F 100% 30.02 in 8.0 mi SE 2.3 mph - N/A   Overcast
6:58 AM 61.3 °F 61.3 °F 100% 30.03 in 10.0 mi SE 2.3 mph - 0.00 in   Overcast
7:28 AM 60.8 °F 60.8 °F 100% 30.03 in 10.0 mi ESE 2.3 mph - N/A   Overcast
7:58 AM 61.7 °F 61.7 °F 100% 30.04 in 10.0 mi Calm Calm - N/A   Overcast
8:58 AM 63.0 °F 63.0 °F 100% 30.04 in 10.0 mi SE 3.5 mph - N/A   Overcast
9:58 AM 66.7 °F 63.9 °F 90% 30.04 in 10.0 mi Variable 2.3 mph - N/A   Overcast
10:58 AM 69.1 °F 64.4 °F 85% 30.05 in 10.0 mi WSW 2.3 mph - N/A   Overcast
11:28 AM 69.8 °F 64.4 °F 83% 30.04 in 10.0 mi Variable 4.6 mph - N/A   Overcast
11:58 AM 70.7 °F 64.2 °F 80% 30.05 in 10.0 mi WSW 3.5 mph - N/A   Overcast
12:18 PM 71.6 °F 64.4 °F 78% 30.03 in 10.0 mi WNW 3.5 mph - N/A   Mostly Cloudy
12:38 PM 71.6 °F 64.4 °F 78% 30.04 in 10.0 mi NNW 4.6 mph - N/A   Mostly Cloudy
12:58 PM 71.4 °F 64.0 °F 77% 30.04 in 10.0 mi Variable 2.3 mph - N/A   Mostly Cloudy
1:18 PM 71.6 °F 64.4 °F 78% 30.03 in 10.0 mi NW 5.8 mph - N/A   Scattered Clouds
1:58 PM 72.5 °F 63.5 °F 73% 30.02 in 10.0 mi WNW 4.6 mph - N/A   Overcast
2:58 PM 75.6 °F 61.0 °F 60% 30.00 in 10.0 mi North 5.8 mph - N/A   Mostly Cloudy
3:58 PM 73.4 °F 60.8 °F 65% 29.98 in 10.0 mi NW 9.2 mph - N/A   Mostly Cloudy
4:58 PM 73.9 °F 60.6 °F 63% 29.97 in 10.0 mi NNW 6.9 mph - N/A   Overcast
5:58 PM 74.1 °F 58.6 °F 58% 29.97 in 10.0 mi Variable 1.2 mph - N/A   Mostly Cloudy
6:58 PM 73.4 °F 60.8 °F 65% 29.98 in 10.0 mi South 3.5 mph - N/A   Mostly Cloudy
7:58 PM 68.9 °F 65.1 °F 88% 29.98 in 10.0 mi SE 4.6 mph - N/A   Mostly Cloudy
8:58 PM 66.0 °F 65.8 °F 99% 30.00 in 10.0 mi SE 5.8 mph - N/A   Mostly Cloudy
9:58 PM 65.8 °F 65.7 °F 99% 30.01 in 7.0 mi SE 4.6 mph - N/A   Mostly Cloudy
10:14 PM 64.4 °F 64.4 °F 100% 30.01 in 7.0 mi SE 3.5 mph - N/A   Mostly Cloudy
10:38 PM 66.2 °F 66.2 °F 100% 30.01 in 7.0 mi South 5.8 mph - N/A   Mostly Cloudy
10:58 PM 65.5 °F 65.5 °F 100% 30.02 in 7.0 mi SE 4.6 mph - N/A   Overcast
11:05 PM 64.4 °F 64.4 °F 100% 30.01 in 10.0 mi SE 4.6 mph - N/A   Overcast
11:28 PM 66.2 °F 66.2 °F 100% 30.00 in 10.0 mi SSE 2.3 mph - N/A   Overcast
11:55 PM 64.4 °F 64.4 °F 100% 29.99 in 9.0 mi East 1.2 mph - N/A   Scattered Clouds
11:58 PM 64.4 °F 64.4 °F 100% 30.00 in 8.0 mi East 2.3 mph - N/A   Partly Cloudy